owner,sensor,date,latitude,longitude,vertical_datum,wind_speed,wind_to_direction,wind_speed_of_gust,qcFlag 
NDBC,ioos:station:NOAA.NDBC:VENF1:1,2011-04-08T03:00:00Z,27.0720,-82.4530,11.6,4.1,70.0,4.6,'1111122,1111122,1111122' 
NDBC,ioos:station:NOAA.NDBC:VENF1:1,2011-04-19T21:00:00Z,27.0720,-82.4530,11.6,8.2,120.0,,'1111122,1111122,1111122' 
NDBC,ioos:station:NOAA.NDBC:VENF1:1,2011-04-19T22:00:00Z,27.0720,-82.4530,11.6,7.7,120.0,,'1111122,1111122,1111122' 
NDBC,ioos:station:NOAA.NDBC:VENF1:1,2011-04-19T23:00:00Z,27.0720,-82.4530,11.6,7.7,120.0,,'1111122,1111122,1111122' 
NDBC,ioos:station:NOAA.NDBC:VENF1:1,2011-04-20T14:00:00Z,27.0720,-82.4530,11.6,8.7,130.0,,'1111122,1111122,1111122' 
NDBC,ioos:station:NOAA.NDBC:VENF1:1,2011-04-20T15:00:00Z,27.0720,-82.4530,11.6,7.7,130.0,,'1111122,1111122,1111122' 
NDBC,ioos:station:NOAA.NDBC:VENF1:1,2011-04-21T15:00:00Z,27.0720,-82.4530,11.6,8.2,90.0,,'1111122,1111122,1111122' 
NDBC,ioos:station:NOAA.NDBC:VENF1:1,2011-04-21T16:00:00Z,27.0720,-82.4530,11.6,7.2,90.0,,'1111122,1111122,1111122' 
NDBC,ioos:station:NOAA.NDBC:VENF1:1,2011-04-21T17:00:00Z,27.0720,-82.4530,11.6,6.7,90.0,,'1111122,1111122,1111122' 
NDBC,ioos:station:NOAA.NDBC:VENF1:1,2011-04-21T18:00:00Z,27.0720,-82.4530,11.6,6.2,80.0,,'1111122,1111122,1111122' 
NDBC,ioos:station:NOAA.NDBC:VENF1:1,2011-04-21T19:00:00Z,27.0720,-82.4530,11.6,6.7,70.0,,'1111122,1111122,1111122' 
NDBC,ioos:station:NOAA.NDBC:VENF1:1,2011-04-21T20:00:00Z,27.0720,-82.4530,11.6,7.2,70.0,,'1111122,1111122,1111122' 
NDBC,ioos:station:NOAA.NDBC:VENF1:1,2011-04-21T21:00:00Z,27.0720,-82.4530,11.6,5.1,70.0,,'1111122,1111122,1111122' 
NDBC,ioos:station:NOAA.NDBC:VENF1:1,2011-04-21T22:00:00Z,27.0720,-82.4530,11.6,6.2,80.0,,'1111122,1111122,1111122' 
NDBC,ioos:station:NOAA.NDBC:VENF1:1,2011-04-21T23:00:00Z,27.0720,-82.4530,11.6,6.2,80.0,,'1111122,1111122,1111122' 
NDBC,ioos:station:NOAA.NDBC:VENF1:1,2011-04-22T00:00:00Z,27.0720,-82.4530,11.6,6.2,80.0,,'1111122,1111122,1111122' 
NDBC,ioos:station:NOAA.NDBC:VENF1:1,2011-04-22T01:00:00Z,27.0720,-82.4530,11.6,7.2,80.0,,'1111122,1111122,1111122' 
NDBC,ioos:station:NOAA.NDBC:VENF1:1,2011-04-22T02:00:00Z,27.0720,-82.4530,11.6,6.7,90.0,,'1111122,1111122,1111122' 
NDBC,ioos:station:NOAA.NDBC:VENF1:1,2011-04-22T03:00:00Z,27.0720,-82.4530,11.6,9.3,90.0,,'1111122,1111122,1111122' 
NDBC,ioos:station:NOAA.NDBC:VENF1:1,2011-04-22T13:00:00Z,27.0720,-82.4530,11.6,8.7,100.0,,'1111122,1111122,1111122' 
NDBC,ioos:station:NOAA.NDBC:VENF1:1,2011-04-22T14:00:00Z,27.0720,-82.4530,11.6,8.7,100.0,,'1111122,1111122,1111122' 
NDBC,ioos:station:NOAA.NDBC:VENF1:1,2011-04-22T15:00:00Z,27.0720,-82.4530,11.6,8.2,100.0,,'1111122,1111122,1111122' 
NDBC,ioos:station:NOAA.NDBC:VENF1:1,2011-04-22T16:00:00Z,27.0720,-82.4530,11.6,7.7,110.0,,'1111122,1111122,1111122' 
NDBC,ioos:station:NOAA.NDBC:VENF1:1,2011-04-22T17:00:00Z,27.0720,-82.4530,11.6,8.7,110.0,,'1111122,1111122,1111122' 
NDBC,ioos:station:NOAA.NDBC:VENF1:1,2011-04-22T18:00:00Z,27.0720,-82.4530,11.6,8.7,120.0,,'1111122,1111122,1111122' 
NDBC,ioos:station:NOAA.NDBC:VENF1:1,2011-04-22T19:00:00Z,27.0720,-82.4530,11.6,7.7,120.0,,'1111122,1111122,1111122' 
NDBC,ioos:station:NOAA.NDBC:VENF1:1,2011-04-22T20:00:00Z,27.0720,-82.4530,11.6,7.7,110.0,,'1111122,1111122,1111122' 
NDBC,ioos:station:NOAA.NDBC:VENF1:1,2011-04-22T21:00:00Z,27.0720,-82.4530,11.6,8.2,110.0,,'1111122,1111122,1111122' 
NDBC,ioos:station:NOAA.NDBC:VENF1:1,2011-04-22T22:00:00Z,27.0720,-82.4530,11.6,7.7,110.0,,'1111122,1111122,1111122' 
NDBC,ioos:station:NOAA.NDBC:VENF1:1,2011-04-22T23:00:00Z,27.0720,-82.4530,11.6,6.7,110.0,,'1111122,1111122,1111122' 
NDBC,ioos:station:NOAA.NDBC:VENF1:1,2011-04-23T00:00:00Z,27.0720,-82.4530,11.6,7.7,110.0,,'1111122,1111122,1111122' 
NDBC,ioos:station:NOAA.NDBC:VENF1:1,2011-04-23T01:00:00Z,27.0720,-82.4530,11.6,8.7,100.0,,'1111122,1111122,1111122' 
NDBC,ioos:station:NOAA.NDBC:VENF1:1,2011-04-23T02:00:00Z,27.0720,-82.4530,11.6,10.3,90.0,,'1111122,1111122,1111122' 
NDBC,ioos:station:NOAA.NDBC:VENF1:1,2011-04-23T03:00:00Z,27.0720,-82.4530,11.6,10.8,100.0,,'1111122,1111122,1111122' 
NDBC,ioos:station:NOAA.NDBC:VENF1:1,2011-04-23T14:00:00Z,27.0720,-82.4530,11.6,8.2,120.0,,'1111122,1111122,1111122' 
NDBC,ioos:station:NOAA.NDBC:VENF1:1,2011-04-23T15:00:00Z,27.0720,-82.4530,11.6,8.2,120.0,,'1111122,1111122,1111122' 
NDBC,ioos:station:NOAA.NDBC:VENF1:1,2011-04-23T16:00:00Z,27.0720,-82.4530,11.6,7.2,120.0,,'1111122,1111122,1111122' 
NDBC,ioos:station:NOAA.NDBC:VENF1:1,2011-04-23T17:00:00Z,27.0720,-82.4530,11.6,8.7,110.0,,'1111122,1111122,1111122' 
NDBC,ioos:station:NOAA.NDBC:VENF1:1,2011-04-23T18:00:00Z,27.0720,-82.4530,11.6,8.2,110.0,,'1111122,1111122,1111122' 
NDBC,ioos:station:NOAA.NDBC:VENF1:1,2011-04-27T14:00:00Z,27.0720,-82.4530,11.6,5.7,140.0,,'1111122,1111122,1111122' 
NDBC,ioos:station:NOAA.NDBC:VENF1:1,2011-04-27T15:00:00Z,27.0720,-82.4530,11.6,7.2,140.0,,'1111122,1111122,1111122' 
NDBC,ioos:station:NOAA.NDBC:VENF1:1,2011-04-27T16:00:00Z,27.0720,-82.4530,11.6,7.2,150.0,,'1111122,1111122,1111122' 
NDBC,ioos:station:NOAA.NDBC:VENF1:1,2011-04-27T17:00:00Z,27.0720,-82.4530,11.6,6.7,150.0,,'1111122,1111122,1111122' 
NDBC,ioos:station:NOAA.NDBC:VENF1:1,2011-04-27T18:00:00Z,27.0720,-82.4530,11.6,6.7,140.0,,'1111122,1111122,1111122' 
NDBC,ioos:station:NOAA.NDBC:VENF1:1,2011-04-27T19:00:00Z,27.0720,-82.4530,11.6,6.7,130.0,,'1111122,1111122,1111122' 
NDBC,ioos:station:NOAA.NDBC:VENF1:1,2011-04-27T20:00:00Z,27.0720,-82.4530,11.6,7.2,130.0,,'1111122,1111122,1111122' 
NDBC,ioos:station:NOAA.NDBC:VENF1:1,2011-04-27T21:00:00Z,27.0720,-82.4530,11.6,7.7,130.0,,'1111122,1111122,1111122' 
NDBC,ioos:station:NOAA.NDBC:VENF1:1,2011-04-27T22:00:00Z,27.0720,-82.4530,11.6,6.7,120.0,,'1111122,1111122,1111122' 
NDBC,ioos:station:NOAA.NDBC:VENF1:1,2011-04-27T23:00:00Z,27.0720,-82.4530,11.6,5.7,120.0,,'1111122,1111122,1111122' 
NDBC,ioos:station:NOAA.NDBC:VENF1:1,2011-04-28T00:00:00Z,27.0720,-82.4530,11.6,6.7,120.0,,'1111122,1111122,1111122' 
NDBC,ioos:station:NOAA.NDBC:VENF1:1,2011-04-28T14:00:00Z,27.0720,-82.4530,11.6,5.1,150.0,,'1111122,1111122,1111122' 
NDBC,ioos:station:NOAA.NDBC:VENF1:1,2011-04-28T15:00:00Z,27.0720,-82.4530,11.6,6.2,150.0,,'1111122,1111122,1111122' 
NDBC,ioos:station:NOAA.NDBC:VENF1:1,2011-04-28T17:00:00Z,27.0720,-82.4530,11.6,5.1,140.0,,'1111122,1111122,1111122' 
NDBC,ioos:station:NOAA.NDBC:VENF1:1,2011-04-28T18:00:00Z,27.0720,-82.4530,11.6,5.7,140.0,,'1111122,1111122,1111122' 
NDBC,ioos:station:NOAA.NDBC:VENF1:1,2011-04-28T19:00:00Z,27.0720,-82.4530,11.6,4.1,150.0,,'1111122,1111122,1111122' 
NDBC,ioos:station:NOAA.NDBC:VENF1:1,2011-04-28T20:00:00Z,27.0720,-82.4530,11.6,4.1,150.0,,'1111122,1111122,1111122' 
NDBC,ioos:station:NOAA.NDBC:VENF1:1,2011-04-29T00:00:00Z,27.0720,-82.4530,11.6,2.1,50.0,,'1111122,1111122,1111122' 
NDBC,ioos:station:NOAA.NDBC:VENF1:1,2011-04-29T02:00:00Z,27.0720,-82.4530,11.6,2.1,30.0,,'1111122,1111122,1111122' 
NDBC,ioos:station:NOAA.NDBC:VENF1:1,2011-04-29T06:00:00Z,27.0720,-82.4530,11.6,1.5,140.0,,'1111122,1111122,1111122' 
NDBC,ioos:station:NOAA.NDBC:VENF1:1,2011-04-29T07:00:00Z,27.0720,-82.4530,11.6,2.6,160.0,,'1111122,1111122,1111122' 
NDBC,ioos:station:NOAA.NDBC:VENF1:1,2011-04-29T08:00:00Z,27.0720,-82.4530,11.6,1.5,150.0,,'1111122,1111122,1111122' 
NDBC,ioos:station:NOAA.NDBC:VENF1:1,2011-04-29T10:00:00Z,27.0720,-82.4530,11.6,1.5,140.0,,'1111122,1111122,1111122' 
NDBC,ioos:station:NOAA.NDBC:VENF1:1,2011-04-29T11:00:00Z,27.0720,-82.4530,11.6,1.0,100.0,,'1111122,1111122,1111122' 
NDBC,ioos:station:NOAA.NDBC:VENF1:1,2011-04-29T12:00:00Z,27.0720,-82.4530,11.6,0.5,180.0,,'1111122,1111122,1111122' 
NDBC,ioos:station:NOAA.NDBC:VENF1:1,2011-04-29T13:00:00Z,27.0720,-82.4530,11.6,4.1,150.0,,'1111122,1111122,1111122' 
NDBC,ioos:station:NOAA.NDBC:VENF1:1,2011-04-29T14:00:00Z,27.0720,-82.4530,11.6,7.7,170.0,,'1111122,1111122,1111122' 
NDBC,ioos:station:NOAA.NDBC:VENF1:1,2011-04-29T15:00:00Z,27.0720,-82.4530,11.6,1.5,200.0,,'1111122,1111122,1111122' 
NDBC,ioos:station:NOAA.NDBC:VENF1:1,2011-04-29T16:00:00Z,27.0720,-82.4530,11.6,2.6,240.0,,'1111122,1111122,1111122' 
NDBC,ioos:station:NOAA.NDBC:VENF1:1,2011-04-29T18:00:00Z,27.0720,-82.4530,11.6,1.0,270.0,,'1111122,1111122,1111122' 
NDBC,ioos:station:NOAA.NDBC:VENF1:1,2011-04-29T19:00:00Z,27.0720,-82.4530,11.6,2.1,270.0,,'1111122,1111122,1111122' 
NDBC,ioos:station:NOAA.NDBC:VENF1:1,2011-04-29T20:00:00Z,27.0720,-82.4530,11.6,2.1,270.0,,'1111122,1111122,1111122' 
NDBC,ioos:station:NOAA.NDBC:VENF1:1,2011-04-29T21:00:00Z,27.0720,-82.4530,11.6,2.6,300.0,,'1111122,1111122,1111122' 
NDBC,ioos:station:NOAA.NDBC:VENF1:1,2011-04-29T23:00:00Z,27.0720,-82.4530,11.6,4.1,10.0,,'1111122,1111122,1111122' 
NDBC,ioos:station:NOAA.NDBC:VENF1:1,2011-04-30T00:00:00Z,27.0720,-82.4530,11.6,4.1,20.0,,'1111122,1111122,1111122' 
NDBC,ioos:station:NOAA.NDBC:VENF1:1,2011-04-30T01:00:00Z,27.0720,-82.4530,11.6,5.7,30.0,,'1111122,1111122,1111122' 
NDBC,ioos:station:NOAA.NDBC:VENF1:1,2011-04-30T02:00:00Z,27.0720,-82.4530,11.6,4.6,40.0,,'1111122,1111122,1111122' 
NDBC,ioos:station:NOAA.NDBC:VENF1:1,2011-04-30T03:00:00Z,27.0720,-82.4530,11.6,4.1,30.0,,'1111122,1111122,1111122' 
NDBC,ioos:station:NOAA.NDBC:VENF1:1,2011-04-30T04:00:00Z,27.0720,-82.4530,11.6,2.6,10.0,,'1111122,1111122,1111122' 
NDBC,ioos:station:NOAA.NDBC:VENF1:1,2011-04-30T05:00:00Z,27.0720,-82.4530,11.6,4.1,10.0,,'1111122,1111122,1111122' 
NDBC,ioos:station:NOAA.NDBC:VENF1:1,2011-04-30T06:00:00Z,27.0720,-82.4530,11.6,5.1,30.0,,'1111122,1111122,1111122' 
NDBC,ioos:station:NOAA.NDBC:VENF1:1,2011-04-30T07:00:00Z,27.0720,-82.4530,11.6,3.6,40.0,,'1111122,1111122,1111122' 
NDBC,ioos:station:NOAA.NDBC:VENF1:1,2011-04-30T08:00:00Z,27.0720,-82.4530,11.6,4.1,60.0,,'1111122,1111122,1111122' 
NDBC,ioos:station:NOAA.NDBC:VENF1:1,2011-04-30T09:00:00Z,27.0720,-82.4530,11.6,4.1,80.0,,'1111122,1111122,1111122' 
NDBC,ioos:station:NOAA.NDBC:VENF1:1,2011-04-30T10:00:00Z,27.0720,-82.4530,11.6,4.6,80.0,,'1111122,1111122,1111122' 
NDBC,ioos:station:NOAA.NDBC:VENF1:1,2011-04-30T11:00:00Z,27.0720,-82.4530,11.6,3.6,70.0,,'1111122,1111122,1111122' 
NDBC,ioos:station:NOAA.NDBC:VENF1:1,2011-04-30T12:00:00Z,27.0720,-82.4530,11.6,3.1,50.0,,'1111122,1111122,1111122' 
NDBC,ioos:station:NOAA.NDBC:VENF1:1,2011-04-30T13:00:00Z,27.0720,-82.4530,11.6,3.6,40.0,,'1111122,1111122,1111122' 
NDBC,ioos:station:NOAA.NDBC:VENF1:1,2011-04-30T14:00:00Z,27.0720,-82.4530,11.6,4.1,60.0,,'1111122,1111122,1111122' 
NDBC,ioos:station:NOAA.NDBC:VENF1:1,2011-04-30T15:00:00Z,27.0720,-82.4530,11.6,4.1,50.0,,'1111122,1111122,1111122' 
NDBC,ioos:station:NOAA.NDBC:VENF1:1,2011-04-30T16:00:00Z,27.0720,-82.4530,11.6,4.6,60.0,,'1111122,1111122,1111122' 
NDBC,ioos:station:NOAA.NDBC:VENF1:1,2011-04-30T17:00:00Z,27.0720,-82.4530,11.6,5.1,60.0,,'1111122,1111122,1111122' 
NDBC,ioos:station:NOAA.NDBC:VENF1:1,2011-04-30T18:00:00Z,27.0720,-82.4530,11.6,5.1,60.0,,'1111122,1111122,1111122' 
NDBC,ioos:station:NOAA.NDBC:VENF1:1,2011-04-30T19:00:00Z,27.0720,-82.4530,11.6,4.6,70.0,,'1111122,1111122,1111122' 
NDBC,ioos:station:NOAA.NDBC:VENF1:1,2011-04-30T20:00:00Z,27.0720,-82.4530,11.6,5.1,70.0,,'1111122,1111122,1111122' 
NDBC,ioos:station:NOAA.NDBC:VENF1:1,2011-04-30T21:00:00Z,27.0720,-82.4530,11.6,4.6,70.0,,'1111122,1111122,1111122' 
NDBC,ioos:station:NOAA.NDBC:VENF1:1,2011-04-30T22:00:00Z,27.0720,-82.4530,11.6,4.6,70.0,,'1111122,1111122,1111122' 
NDBC,ioos:station:NOAA.NDBC:VENF1:1,2011-04-30T23:00:00Z,27.0720,-82.4530,11.6,4.6,70.0,,'1111122,1111122,1111122' 
 
DISCLAIMER: The Gulf of Mexico Coastal and Ocean Observing (GCOOS) Data Portal aggregates data from the regional data providers for the convenience of all data users. Data published on this website should not be used for navigation or certain other uses as we cannot guarantee data accuracy or availability. The data and delivery services are provided 'as is' without warranty of any kind. Data Source: Gulf of Mexico Coastal Ocean Observing System Data Portal (http://data.gcoos.org/) 
